Time,TemperatureF,DewpointF,PressureIn,WindDirection,WindDirectionDegrees,WindSpeedMPH,WindSpeedGustMPH,Humidity,HourlyPrecipIn,Conditions,Clouds,dailyrainin,SoftwareType,DateUTC
2013-02-17 00:02:00,40.1,36.0,30.17,ESE,112,3.5,3.5,85,0.00,CLR,,0.00,WeatherDisplay:10.37,2013-02-17 00:02:00,
2013-02-17 00:07:00,40.1,36.0,30.17,ESE,112,3.5,3.5,85,0.00,CLR,,0.00,WeatherDisplay:10.37,2013-02-17 00:07:00,
2013-02-17 00:12:00,39.9,35.8,30.17,East,90,4.6,4.6,85,0.00,CLR,,0.00,WeatherDisplay:10.37,2013-02-17 00:12:00,
2013-02-17 00:17:00,39.9,35.8,30.17,ESE,112,3.8,3.8,85,0.00,CLR,,0.00,WeatherDisplay:10.37,2013-02-17 00:17:00,
2013-02-17 00:22:00,39.9,35.8,30.17,ESE,112,3.5,3.5,85,0.00,CLR,,0.00,WeatherDisplay:10.37,2013-02-17 00:22:00,
2013-02-17 00:27:00,39.9,35.8,30.17,ESE,112,2.3,2.3,85,0.00,CLR,,0.00,WeatherDisplay:10.37,2013-02-17 00:27:00,
2013-02-17 00:32:00,39.9,35.8,30.17,ESE,112,1.8,1.8,85,0.00,CLR,,0.00,WeatherDisplay:10.37,2013-02-17 00:32:00,
2013-02-17 00:37:00,39.9,35.8,30.17,ESE,112,2.5,2.5,85,0.00,CLR,,0.00,WeatherDisplay:10.37,2013-02-17 00:37:00,
2013-02-17 00:42:00,39.9,35.8,30.17,ESE,112,2.3,2.3,85,0.00,CLR,,0.00,WeatherDisplay:10.37,2013-02-17 00:42:00,
2013-02-17 00:47:00,39.7,35.6,30.17,ESE,112,1.1,1.1,85,0.00,CLR,,0.00,WeatherDisplay:10.37,2013-02-17 00:47:00,
2013-02-17 00:52:00,39.7,35.6,30.17,ESE,112,1.1,0.0,85,0.00,CLR,,0.00,WeatherDisplay:10.37,2013-02-17 00:52:00,
2013-02-17 00:57:00,39.6,35.7,30.17,ESE,112,0.0,0.0,86,0.00,CLR,,0.00,WeatherDisplay:10.37,2013-02-17 00:57:00,
2013-02-17 01:02:00,39.4,35.5,30.17,ESE,112,1.1,1.1,86,0.00,CLR,,0.00,WeatherDisplay:10.37,2013-02-17 01:02:00,
2013-02-17 01:07:00,39.4,35.5,30.17,ESE,112,1.1,1.1,86,0.00,CLR,,0.00,WeatherDisplay:10.37,2013-02-17 01:07:00,
2013-02-17 01:12:00,39.0,35.2,30.17,ESE,112,2.3,2.3,86,0.00,CLR,,0.00,WeatherDisplay:10.37,2013-02-17 01:12:00,
2013-02-17 01:17:00,39.0,35.2,30.17,ESE,112,1.1,1.2,86,0.00,CLR,,0.00,WeatherDisplay:10.37,2013-02-17 01:17:00,
2013-02-17 01:22:00,39.0,35.2,30.17,ESE,112,1.1,1.1,86,0.00,CLR,,0.00,WeatherDisplay:10.37,2013-02-17 01:22:00,
2013-02-17 01:27:00,39.0,35.2,30.17,ESE,112,3.5,3.5,86,0.00,CLR,,0.00,WeatherDisplay:10.37,2013-02-17 01:27:00,
2013-02-17 01:32:00,39.2,35.4,30.17,ESE,112,1.1,1.1,86,0.00,CLR,,0.00,WeatherDisplay:10.37,2013-02-17 01:32:00,
2013-02-17 01:37:00,39.4,35.5,30.17,ESE,112,3.5,3.5,86,0.00,CLR,,0.00,WeatherDisplay:10.37,2013-02-17 01:37:00,
2013-02-17 01:42:00,39.4,35.8,30.17,ESE,112,1.1,1.1,87,0.00,CLR,,0.00,WeatherDisplay:10.37,2013-02-17 01:42:00,
2013-02-17 01:47:00,39.4,35.8,30.17,ESE,112,2.3,2.3,87,0.00,CLR,,0.00,WeatherDisplay:10.37,2013-02-17 01:47:00,
2013-02-17 01:52:00,39.4,35.8,30.16,ESE,112,2.3,2.3,87,0.00,CLR,,0.00,WeatherDisplay:10.37,2013-02-17 01:52:00,
2013-02-17 01:57:00,39.4,35.8,30.16,ESE,112,1.1,1.1,87,0.00,CLR,,0.00,WeatherDisplay:10.37,2013-02-17 01:57:00,
2013-02-17 02:02:00,39.4,35.8,30.16,ESE,112,2.7,2.7,87,0.00,CLR,,0.00,WeatherDisplay:10.37,2013-02-17 02:02:00,
2013-02-17 02:07:00,39.4,35.8,30.16,SE,135,2.3,2.3,87,0.00,CLR,,0.00,WeatherDisplay:10.37,2013-02-17 02:07:00,
2013-02-17 02:12:00,39.4,35.8,30.16,SE,135,3.1,3.1,87,0.00,CLR,,0.00,WeatherDisplay:10.37,2013-02-17 02:12:00,
2013-02-17 02:17:00,39.6,36.0,30.16,SE,135,3.5,3.5,87,0.00,CLR,,0.00,WeatherDisplay:10.37,2013-02-17 02:17:00,
2013-02-17 02:22:00,39.6,36.0,30.16,SE,135,4.5,4.5,87,0.00,CLR,,0.00,WeatherDisplay:10.37,2013-02-17 02:22:00,
2013-02-17 02:27:00,39.6,36.3,30.16,SE,135,2.3,2.3,88,0.00,CLR,,0.00,WeatherDisplay:10.37,2013-02-17 02:27:00,
2013-02-17 02:32:00,39.6,36.3,30.16,SE,135,2.3,2.3,88,0.00,CLR,,0.00,WeatherDisplay:10.37,2013-02-17 02:32:00,
2013-02-17 02:37:00,39.6,36.3,30.16,SE,135,2.3,2.3,88,0.00,CLR,,0.00,WeatherDisplay:10.37,2013-02-17 02:37:00,
2013-02-17 02:42:00,39.6,36.3,30.16,ESE,112,3.5,3.5,88,0.00,CLR,,0.00,WeatherDisplay:10.37,2013-02-17 02:42:00,
2013-02-17 02:51:00,39.4,36.1,30.15,SE,135,3.5,3.5,88,0.00,CLR,,0.00,WeatherDisplay:10.37,2013-02-17 02:51:00,
2013-02-17 02:56:00,39.4,36.1,30.15,ESE,112,3.5,3.5,88,0.00,CLR,,0.00,WeatherDisplay:10.37,2013-02-17 02:56:00,
2013-02-17 03:01:00,39.4,36.1,30.15,ESE,112,1.1,2.8,88,0.00,CLR,,0.00,WeatherDisplay:10.37,2013-02-17 03:01:00,
2013-02-17 03:06:00,39.4,36.1,30.15,ESE,112,2.3,2.3,88,0.00,CLR,,0.00,WeatherDisplay:10.37,2013-02-17 03:06:00,
2013-02-17 03:11:00,39.4,36.1,30.15,ESE,112,3.5,3.5,88,0.00,CLR,,0.00,WeatherDisplay:10.37,2013-02-17 03:11:00,
2013-02-17 03:16:00,39.2,35.9,30.15,ESE,112,2.5,2.5,88,0.00,CLR,,0.00,WeatherDisplay:10.37,2013-02-17 03:16:00,
2013-02-17 03:21:00,39.0,35.8,30.15,ESE,112,2.3,2.3,88,0.00,CLR,,0.00,WeatherDisplay:10.37,2013-02-17 03:21:00,
2013-02-17 03:26:00,39.0,35.8,30.15,ESE,112,2.3,2.3,88,0.00,CLR,,0.00,WeatherDisplay:10.37,2013-02-17 03:26:00,
2013-02-17 03:31:00,38.8,35.6,30.15,ESE,112,3.5,3.5,88,0.00,CLR,,0.00,WeatherDisplay:10.37,2013-02-17 03:31:00,
2013-02-17 03:36:00,38.8,35.6,30.16,ESE,112,1.6,1.6,88,0.00,CLR,,0.00,WeatherDisplay:10.37,2013-02-17 03:36:00,
2013-02-17 03:41:00,38.8,35.6,30.15,ESE,112,1.6,1.6,88,0.00,CLR,,0.00,WeatherDisplay:10.37,2013-02-17 03:41:00,
2013-02-17 03:46:00,38.8,35.6,30.15,ESE,112,3.5,3.5,88,0.00,CLR,,0.00,WeatherDisplay:10.37,2013-02-17 03:46:00,
2013-02-17 03:51:00,38.8,35.6,30.15,ESE,112,2.5,2.5,88,0.00,CLR,,0.00,WeatherDisplay:10.37,2013-02-17 03:51:00,
2013-02-17 03:56:00,38.8,35.6,30.15,ESE,112,2.3,2.3,88,0.00,CLR,,0.00,WeatherDisplay:10.37,2013-02-17 03:56:00,
2013-02-17 04:01:00,38.8,35.6,30.15,ESE,112,2.3,2.5,88,0.00,CLR,,0.00,WeatherDisplay:10.37,2013-02-17 04:01:00,
2013-02-17 04:06:00,38.8,35.6,30.15,ESE,112,2.3,2.3,88,0.00,CLR,,0.00,WeatherDisplay:10.37,2013-02-17 04:06:00,
2013-02-17 04:11:00,38.5,35.5,30.15,ESE,112,2.3,2.3,89,0.00,CLR,,0.00,WeatherDisplay:10.37,2013-02-17 04:11:00,
2013-02-17 04:16:00,38.5,35.5,30.15,ESE,112,1.6,1.6,89,0.00,CLR,,0.00,WeatherDisplay:10.37,2013-02-17 04:16:00,
2013-02-17 04:21:00,38.5,35.5,30.15,ESE,112,2.3,2.3,89,0.00,CLR,,0.00,WeatherDisplay:10.37,2013-02-17 04:21:00,
2013-02-17 04:26:00,38.5,35.5,30.15,SE,135,4.6,4.6,89,0.00,CLR,,0.00,WeatherDisplay:10.37,2013-02-17 04:26:00,
2013-02-17 04:31:00,38.5,35.5,30.15,SE,135,3.5,3.5,89,0.00,CLR,,0.00,WeatherDisplay:10.37,2013-02-17 04:31:00,
2013-02-17 04:36:00,38.5,35.5,30.15,SE,135,3.5,3.5,89,0.00,CLR,,0.00,WeatherDisplay:10.37,2013-02-17 04:36:00,
2013-02-17 04:41:00,38.5,35.5,30.15,SE,135,4.6,4.6,89,0.00,CLR,,0.00,WeatherDisplay:10.37,2013-02-17 04:41:00,
2013-02-17 04:46:00,38.5,35.5,30.15,SSE,158,2.3,2.3,89,0.00,CLR,,0.00,WeatherDisplay:10.37,2013-02-17 04:46:00,
2013-02-17 04:51:00,38.8,35.9,30.15,SE,135,4.6,4.6,89,0.00,CLR,,0.00,WeatherDisplay:10.37,2013-02-17 04:51:00,
2013-02-17 04:56:00,38.8,35.9,30.15,SE,135,3.5,3.5,89,0.00,CLR,,0.00,WeatherDisplay:10.37,2013-02-17 04:56:00,
2013-02-17 05:00:00,38.8,35.9,30.16,SE,135,2.3,2.3,89,0.00,CLR,,0.00,WeatherDisplay:10.37,2013-02-17 05:00:00,
2013-02-17 05:06:00,38.8,35.9,30.15,ESE,112,3.5,3.5,89,0.00,CLR,,0.00,WeatherDisplay:10.37,2013-02-17 05:06:00,
2013-02-17 05:11:00,38.8,35.9,30.15,ESE,112,3.5,3.5,89,0.00,CLR,,0.00,WeatherDisplay:10.37,2013-02-17 05:11:00,
2013-02-17 05:16:00,38.7,35.7,30.15,ESE,112,2.3,2.3,89,0.00,CLR,,0.00,WeatherDisplay:10.37,2013-02-17 05:16:00,
2013-02-17 05:21:00,38.5,35.5,30.15,ESE,112,3.5,3.5,89,0.00,CLR,,0.00,WeatherDisplay:10.37,2013-02-17 05:21:00,
2013-02-17 05:26:00,38.5,35.5,30.16,ESE,112,3.5,3.5,89,0.00,CLR,,0.00,WeatherDisplay:10.37,2013-02-17 05:26:00,
2013-02-17 05:31:00,38.5,35.5,30.16,ESE,112,4.6,4.6,89,0.00,CLR,,0.00,WeatherDisplay:10.37,2013-02-17 05:31:00,
2013-02-17 05:36:00,38.3,35.3,30.15,ESE,112,5.8,5.8,89,0.00,CLR,,0.00,WeatherDisplay:10.37,2013-02-17 05:36:00,
2013-02-17 05:41:00,38.1,35.2,30.16,ESE,112,3.6,3.6,89,0.00,CLR,,0.00,WeatherDisplay:10.37,2013-02-17 05:41:00,
2013-02-17 05:46:00,38.1,35.2,30.15,ESE,112,4.6,4.6,89,0.00,CLR,,0.00,WeatherDisplay:10.37,2013-02-17 05:46:00,
2013-02-17 05:51:00,37.9,35.0,30.16,ESE,112,3.5,3.5,89,0.00,CLR,,0.00,WeatherDisplay:10.37,2013-02-17 05:51:00,
2013-02-17 05:56:00,37.9,35.0,30.15,ESE,112,3.5,3.5,89,0.00,CLR,,0.00,WeatherDisplay:10.37,2013-02-17 05:56:00,
2013-02-17 06:01:00,37.9,35.0,30.16,ESE,112,3.5,3.5,89,0.00,CLR,,0.00,WeatherDisplay:10.37,2013-02-17 06:01:00,
2013-02-17 06:06:00,37.8,34.8,30.16,ESE,112,3.5,3.5,89,0.00,CLR,,0.00,WeatherDisplay:10.37,2013-02-17 06:06:00,
2013-02-17 06:11:00,37.6,34.6,30.16,ESE,112,3.5,3.5,89,0.00,CLR,,0.00,WeatherDisplay:10.37,2013-02-17 06:11:00,
2013-02-17 06:16:00,37.6,34.6,30.15,ESE,112,2.3,2.3,89,0.00,CLR,,0.00,WeatherDisplay:10.37,2013-02-17 06:16:00,
2013-02-17 06:21:00,37.6,34.6,30.16,ESE,112,3.5,3.5,89,0.00,CLR,,0.00,WeatherDisplay:10.37,2013-02-17 06:21:00,
2013-02-17 06:26:00,37.6,34.6,30.16,ESE,112,4.6,4.6,89,0.00,CLR,,0.00,WeatherDisplay:10.37,2013-02-17 06:26:00,
2013-02-17 06:31:00,37.4,34.5,30.16,ESE,112,2.3,2.3,89,0.00,CLR,,0.00,WeatherDisplay:10.37,2013-02-17 06:31:00,
2013-02-17 06:36:00,37.4,34.5,30.16,ESE,112,3.5,3.5,89,0.00,CLR,,0.00,WeatherDisplay:10.37,2013-02-17 06:36:00,
2013-02-17 06:41:00,37.2,34.3,30.16,ESE,112,3.5,3.5,89,0.00,CLR,,0.00,WeatherDisplay:10.37,2013-02-17 06:41:00,
2013-02-17 06:46:00,37.2,34.3,30.16,SE,135,3.5,3.5,89,0.00,CLR,,0.00,WeatherDisplay:10.37,2013-02-17 06:46:00,
2013-02-17 06:51:00,37.2,34.3,30.17,ESE,112,4.6,4.6,89,0.00,CLR,,0.00,WeatherDisplay:10.37,2013-02-17 06:51:00,
2013-02-17 06:56:00,37.2,34.3,30.17,ESE,112,3.5,3.5,89,0.00,CLR,,0.00,WeatherDisplay:10.37,2013-02-17 06:56:00,
2013-02-17 07:01:00,37.2,34.3,30.17,East,90,4.6,4.6,89,0.00,CLR,,0.00,WeatherDisplay:10.37,2013-02-17 07:01:00,
2013-02-17 07:06:00,37.2,34.3,30.17,ESE,112,3.5,3.5,89,0.00,CLR,,0.00,WeatherDisplay:10.37,2013-02-17 07:06:00,
2013-02-17 07:11:00,37.0,34.1,30.17,ESE,112,4.6,4.6,89,0.00,CLR,,0.00,WeatherDisplay:10.37,2013-02-17 07:11:00,
2013-02-17 07:16:00,37.0,34.1,30.17,ESE,112,4.6,4.6,89,0.00,CLR,,0.00,WeatherDisplay:10.37,2013-02-17 07:16:00,
2013-02-17 07:21:00,37.0,34.1,30.17,ESE,112,3.5,3.5,89,0.00,CLR,,0.00,WeatherDisplay:10.37,2013-02-17 07:21:00,
2013-02-17 07:26:00,37.0,34.1,30.16,East,90,4.6,4.6,89,0.00,CLR,,0.00,WeatherDisplay:10.37,2013-02-17 07:26:00,
2013-02-17 07:31:00,37.0,34.1,30.17,ESE,112,4.6,4.6,89,0.00,CLR,,0.00,WeatherDisplay:10.37,2013-02-17 07:31:00,
2013-02-17 07:36:00,37.0,34.1,30.17,ESE,112,3.5,3.5,89,0.00,CLR,,0.00,WeatherDisplay:10.37,2013-02-17 07:36:00,
2013-02-17 07:41:00,37.0,34.1,30.16,ESE,112,3.5,3.5,89,0.00,CLR,,0.00,WeatherDisplay:10.37,2013-02-17 07:41:00,
2013-02-17 07:46:00,36.9,33.9,30.17,ESE,112,4.7,4.7,89,0.00,CLR,,0.00,WeatherDisplay:10.37,2013-02-17 07:46:00,
2013-02-17 07:51:00,36.9,33.9,30.17,ESE,112,4.6,4.6,89,0.00,CLR,,0.00,WeatherDisplay:10.37,2013-02-17 07:51:00,
2013-02-17 07:56:00,36.9,33.9,30.17,ESE,112,3.5,3.5,89,0.00,CLR,,0.00,WeatherDisplay:10.37,2013-02-17 07:56:00,
2013-02-17 08:01:00,36.9,33.9,30.17,ESE,112,2.5,2.5,89,0.00,CLR,,0.00,WeatherDisplay:10.37,2013-02-17 08:01:00,
2013-02-17 08:06:00,36.7,33.7,30.17,ESE,112,3.5,3.5,89,0.00,CLR,,0.00,WeatherDisplay:10.37,2013-02-17 08:06:00,
2013-02-17 08:11:00,36.9,33.9,30.16,East,90,4.6,4.6,89,0.00,CLR,,0.00,WeatherDisplay:10.37,2013-02-17 08:11:00,
2013-02-17 08:16:00,37.0,34.1,30.17,ESE,112,3.5,3.5,89,0.00,CLR,,0.00,WeatherDisplay:10.37,2013-02-17 08:16:00,
2013-02-17 08:21:00,37.0,34.1,30.17,ESE,112,3.5,3.5,89,0.00,CLR,,0.00,WeatherDisplay:10.37,2013-02-17 08:21:00,
2013-02-17 08:26:00,37.2,34.3,30.16,ESE,112,3.5,3.5,89,0.00,CLR,,0.00,WeatherDisplay:10.37,2013-02-17 08:26:00,
2013-02-17 08:31:00,37.4,34.5,30.17,ESE,112,3.5,3.5,89,0.00,CLR,,0.00,WeatherDisplay:10.37,2013-02-17 08:31:00,
2013-02-17 08:36:00,37.6,34.3,30.17,ESE,112,3.5,3.5,88,0.00,CLR,,0.00,WeatherDisplay:10.37,2013-02-17 08:36:00,
2013-02-17 08:41:00,37.9,34.7,30.17,ESE,112,4.6,4.6,88,0.00,CLR,,0.00,WeatherDisplay:10.37,2013-02-17 08:41:00,
2013-02-17 08:46:00,38.1,34.9,30.17,East,90,2.3,2.3,88,0.00,CLR,,0.00,WeatherDisplay:10.37,2013-02-17 08:46:00,
2013-02-17 08:51:00,38.5,35.2,30.17,SE,135,4.6,4.6,88,0.00,CLR,,0.00,WeatherDisplay:10.37,2013-02-17 08:51:00,
2013-02-17 08:56:00,38.8,35.6,30.16,SSE,158,8.1,8.1,88,0.00,CLR,,0.00,WeatherDisplay:10.37,2013-02-17 08:56:00,
2013-02-17 09:01:00,39.2,35.7,30.16,SSE,158,4.6,4.6,87,0.00,CLR,,0.00,WeatherDisplay:10.37,2013-02-17 09:01:00,
2013-02-17 09:06:00,39.9,36.7,30.17,SSE,158,5.8,5.8,88,0.00,CLR,,0.00,WeatherDisplay:10.37,2013-02-17 09:06:00,
2013-02-17 09:11:00,40.5,36.9,30.17,SSE,158,4.6,4.6,87,0.00,CLR,,0.00,WeatherDisplay:10.37,2013-02-17 09:11:00,
2013-02-17 09:16:00,40.8,37.0,30.16,South,180,11.5,11.5,86,0.00,CLR,,0.00,WeatherDisplay:10.37,2013-02-17 09:16:00,
2013-02-17 09:21:00,41.4,37.5,30.16,SE,135,9.2,9.2,86,0.00,CLR,,0.00,WeatherDisplay:10.37,2013-02-17 09:21:00,
2013-02-17 09:26:00,41.7,37.5,30.16,SSE,158,10.5,10.5,85,0.00,CLR,,0.00,WeatherDisplay:10.37,2013-02-17 09:26:00,
2013-02-17 09:31:00,42.1,37.6,30.16,SSE,158,6.9,6.9,84,0.00,CLR,,0.00,WeatherDisplay:10.37,2013-02-17 09:31:00,
2013-02-17 09:36:00,42.6,38.1,30.16,SSE,158,8.1,8.1,84,0.00,CLR,,0.00,WeatherDisplay:10.37,2013-02-17 09:36:00,
2013-02-17 09:41:00,43.0,38.2,30.16,SSE,158,9.2,9.2,83,0.00,CLR,,0.00,WeatherDisplay:10.37,2013-02-17 09:41:00,
2013-02-17 09:46:00,43.2,38.3,30.16,South,180,15.9,15.9,83,0.00,CLR,,0.00,WeatherDisplay:10.37,2013-02-17 09:46:00,
2013-02-17 09:51:00,43.5,38.4,30.16,South,180,6.9,6.9,82,0.00,CLR,,0.00,WeatherDisplay:10.37,2013-02-17 09:51:00,
2013-02-17 09:56:00,43.9,38.7,30.15,SSE,158,10.4,10.4,82,0.00,CLR,,0.00,WeatherDisplay:10.37,2013-02-17 09:56:00,
2013-02-17 10:01:00,44.1,38.9,30.16,SSE,158,6.9,6.9,82,0.00,CLR,,0.00,WeatherDisplay:10.37,2013-02-17 10:01:00,
2013-02-17 10:06:00,44.2,39.1,30.15,SE,135,10.4,10.4,82,0.00,CLR,,0.00,WeatherDisplay:10.37,2013-02-17 10:06:00,
2013-02-17 10:11:00,44.4,39.0,30.15,East,90,12.7,12.7,81,0.00,CLR,,0.00,WeatherDisplay:10.37,2013-02-17 10:11:00,
2013-02-17 10:16:00,45.0,39.5,30.16,SE,135,6.9,6.9,81,0.00,CLR,,0.00,WeatherDisplay:10.37,2013-02-17 10:16:00,
2013-02-17 10:21:00,45.1,39.3,30.16,SSE,158,11.5,11.5,80,0.00,CLR,,0.00,WeatherDisplay:10.37,2013-02-17 10:21:00,
2013-02-17 10:26:00,45.1,39.3,30.16,SSE,158,11.5,11.5,80,0.00,CLR,,0.00,WeatherDisplay:10.37,2013-02-17 10:26:00,
2013-02-17 10:31:00,45.3,39.5,30.16,SSE,158,10.4,10.4,80,0.00,CLR,,0.00,WeatherDisplay:10.37,2013-02-17 10:31:00,
2013-02-17 10:36:00,45.5,39.7,30.16,South,180,4.6,5.1,80,0.00,CLR,,0.00,WeatherDisplay:10.37,2013-02-17 10:36:00,
2013-02-17 10:42:00,45.7,39.9,30.16,SSE,158,10.9,10.9,80,0.00,CLR,,0.00,WeatherDisplay:10.37,2013-02-17 10:42:00,
2013-02-17 10:47:00,45.7,39.9,30.16,South,180,4.7,4.7,80,0.00,CLR,,0.00,WeatherDisplay:10.37,2013-02-17 10:47:00,
2013-02-17 10:52:00,46.0,40.2,30.16,SE,135,3.5,4.4,80,0.00,CLR,,0.00,WeatherDisplay:10.37,2013-02-17 10:52:00,
2013-02-17 10:57:00,46.0,40.2,30.16,SSE,158,13.8,13.8,80,0.00,CLR,,0.00,WeatherDisplay:10.37,2013-02-17 10:57:00,
2013-02-17 11:02:00,46.0,40.2,30.16,SSE,158,9.2,9.2,80,0.00,CLR,,0.00,WeatherDisplay:10.37,2013-02-17 11:02:00,
2013-02-17 11:07:00,46.0,40.2,30.16,SE,135,8.1,8.1,80,0.00,CLR,,0.00,WeatherDisplay:10.37,2013-02-17 11:07:00,
2013-02-17 11:12:00,46.0,39.9,30.16,SSE,158,12.7,12.7,79,0.00,CLR,,0.00,WeatherDisplay:10.37,2013-02-17 11:12:00,
2013-02-17 11:17:00,46.0,39.9,30.16,South,180,11.5,11.5,79,0.00,CLR,,0.00,WeatherDisplay:10.37,2013-02-17 11:17:00,
2013-02-17 11:22:00,46.0,39.9,30.15,South,180,11.5,11.5,79,0.00,CLR,,0.00,WeatherDisplay:10.37,2013-02-17 11:22:00,
2013-02-17 11:27:00,46.0,39.9,30.16,SSE,158,9.2,9.2,79,0.00,CLR,,0.00,WeatherDisplay:10.37,2013-02-17 11:27:00,
2013-02-17 11:32:00,46.0,39.9,30.15,SSE,158,10.4,10.4,79,0.00,CLR,,0.00,WeatherDisplay:10.37,2013-02-17 11:32:00,
2013-02-17 11:37:00,46.0,39.9,30.15,SSW,202,6.9,6.9,79,0.00,CLR,,0.00,WeatherDisplay:10.37,2013-02-17 11:37:00,
2013-02-17 11:42:00,46.0,39.9,30.15,SSE,158,10.4,10.4,79,0.00,CLR,,0.00,WeatherDisplay:10.37,2013-02-17 11:42:00,
2013-02-17 11:47:00,46.0,39.9,30.15,South,180,12.7,12.7,79,0.00,CLR,,0.00,WeatherDisplay:10.37,2013-02-17 11:47:00,
2013-02-17 11:52:00,46.0,39.9,30.15,South,180,12.7,12.7,79,0.00,CLR,,0.00,WeatherDisplay:10.37,2013-02-17 11:52:00,
2013-02-17 11:57:00,46.2,40.1,30.14,SSE,158,7.4,7.4,79,0.00,CLR,,0.00,WeatherDisplay:10.37,2013-02-17 11:57:00,
2013-02-17 12:02:00,46.2,40.1,30.14,South,180,9.4,9.4,79,0.00,CLR,,0.00,WeatherDisplay:10.37,2013-02-17 12:02:00,
2013-02-17 12:07:00,46.2,40.1,30.14,SSE,158,11.5,11.5,79,0.00,CLR,,0.00,WeatherDisplay:10.37,2013-02-17 12:07:00,
2013-02-17 12:12:00,46.2,39.7,30.14,South,180,10.4,10.4,78,0.00,CLR,,0.00,WeatherDisplay:10.37,2013-02-17 12:12:00,
2013-02-17 12:17:00,46.2,39.7,30.14,SSE,158,10.3,10.3,78,0.00,CLR,,0.00,WeatherDisplay:10.37,2013-02-17 12:17:00,
2013-02-17 12:22:00,46.2,39.7,30.14,SE,135,11.5,11.5,78,0.00,CLR,,0.00,WeatherDisplay:10.37,2013-02-17 12:22:00,
2013-02-17 12:27:00,46.6,40.1,30.14,ESE,112,12.7,12.7,78,0.00,CLR,,0.00,WeatherDisplay:10.37,2013-02-17 12:27:00,
2013-02-17 12:32:00,46.6,40.1,30.13,SSE,158,16.1,16.1,78,0.00,CLR,,0.00,WeatherDisplay:10.37,2013-02-17 12:32:00,
2013-02-17 12:37:00,46.6,39.8,30.13,SE,135,16.1,16.1,77,0.00,CLR,,0.00,WeatherDisplay:10.37,2013-02-17 12:37:00,
2013-02-17 12:42:00,46.8,39.6,30.13,SE,135,11.5,11.5,76,0.00,CLR,,0.00,WeatherDisplay:10.37,2013-02-17 12:42:00,
2013-02-17 12:47:00,46.9,39.8,30.14,South,180,8.1,8.1,76,0.00,CLR,,0.00,WeatherDisplay:10.37,2013-02-17 12:47:00,
2013-02-17 12:52:00,46.9,39.8,30.13,South,180,10.5,10.5,76,0.00,CLR,,0.00,WeatherDisplay:10.37,2013-02-17 12:52:00,
2013-02-17 12:57:00,47.1,39.9,30.12,South,180,9.2,9.2,76,0.00,CLR,,0.00,WeatherDisplay:10.37,2013-02-17 12:57:00,
2013-02-17 13:02:00,47.1,39.9,30.12,SSE,158,14.3,14.3,76,0.00,CLR,,0.00,WeatherDisplay:10.37,2013-02-17 13:02:00,
2013-02-17 13:07:00,47.1,39.6,30.12,SSE,158,20.7,20.7,75,0.00,CLR,,0.00,WeatherDisplay:10.37,2013-02-17 13:07:00,
2013-02-17 13:12:00,47.3,39.8,30.12,SSE,158,9.2,9.2,75,0.00,CLR,,0.00,WeatherDisplay:10.37,2013-02-17 13:12:00,
2013-02-17 13:17:00,47.3,39.8,30.12,SSE,158,13.8,13.8,75,0.00,CLR,,0.00,WeatherDisplay:10.37,2013-02-17 13:17:00,
2013-02-17 13:22:00,47.1,39.3,30.12,SE,135,13.8,13.8,74,0.00,CLR,,0.00,WeatherDisplay:10.37,2013-02-17 13:22:00,
2013-02-17 13:27:00,47.3,39.4,30.12,South,180,12.7,12.7,74,0.00,CLR,,0.00,WeatherDisplay:10.37,2013-02-17 13:27:00,
2013-02-17 13:32:00,47.3,39.4,30.12,SSW,202,12.7,12.7,74,0.00,CLR,,0.00,WeatherDisplay:10.37,2013-02-17 13:32:00,
2013-02-17 13:37:00,47.3,39.4,30.12,South,180,14.3,14.3,74,0.00,CLR,,0.00,WeatherDisplay:10.37,2013-02-17 13:37:00,
2013-02-17 13:42:00,47.3,39.4,30.12,SSE,158,13.8,13.8,74,0.00,CLR,,0.00,WeatherDisplay:10.37,2013-02-17 13:42:00,
2013-02-17 13:47:00,47.3,39.1,30.12,SSE,158,17.3,17.3,73,0.00,CLR,,0.00,WeatherDisplay:10.37,2013-02-17 13:47:00,
2013-02-17 13:52:00,47.3,39.1,30.12,SSE,158,12.7,12.7,73,0.00,CLR,,0.00,WeatherDisplay:10.37,2013-02-17 13:52:00,
2013-02-17 13:57:00,47.1,38.6,30.11,South,180,17.3,17.3,72,0.00,CLR,,0.00,WeatherDisplay:10.37,2013-02-17 13:57:00,
2013-02-17 14:02:00,47.1,38.6,30.11,SSE,158,10.4,10.4,72,0.00,CLR,,0.00,WeatherDisplay:10.37,2013-02-17 14:02:00,
2013-02-17 14:07:00,47.1,38.9,30.11,SSE,158,10.4,10.4,73,0.00,CLR,,0.00,WeatherDisplay:10.37,2013-02-17 14:07:00,
2013-02-17 14:12:00,47.1,38.9,30.11,South,180,11.5,11.5,73,0.00,CLR,,0.00,WeatherDisplay:10.37,2013-02-17 14:12:00,
2013-02-17 14:17:00,47.1,38.9,30.11,South,180,9.2,9.2,73,0.00,CLR,,0.00,WeatherDisplay:10.37,2013-02-17 14:17:00,
2013-02-17 14:22:00,47.1,38.6,30.11,SSE,158,12.7,12.7,72,0.00,CLR,,0.00,WeatherDisplay:10.37,2013-02-17 14:22:00,
2013-02-17 14:27:00,47.1,38.6,30.11,SSE,158,10.4,10.4,72,0.00,CLR,,0.00,WeatherDisplay:10.37,2013-02-17 14:27:00,
2013-02-17 14:32:00,46.9,38.0,30.11,SSW,202,17.3,17.3,71,0.00,CLR,,0.00,WeatherDisplay:10.37,2013-02-17 14:32:00,
2013-02-17 14:37:00,46.9,37.7,30.11,SSE,158,16.1,16.1,70,0.00,CLR,,0.00,WeatherDisplay:10.37,2013-02-17 14:37:00,
2013-02-17 14:42:00,46.9,37.7,30.11,South,180,13.8,13.8,70,0.00,CLR,,0.00,WeatherDisplay:10.37,2013-02-17 14:42:00,
2013-02-17 14:47:00,46.9,37.7,30.11,South,180,7.4,7.4,70,0.00,CLR,,0.00,WeatherDisplay:10.37,2013-02-17 14:47:00,
2013-02-17 14:52:00,46.9,37.7,30.11,SSE,158,10.4,10.4,70,0.00,CLR,,0.00,WeatherDisplay:10.37,2013-02-17 14:52:00,
2013-02-17 14:57:00,46.9,37.7,30.11,SSE,158,11.5,11.5,70,0.00,CLR,,0.00,WeatherDisplay:10.37,2013-02-17 14:57:00,
2013-02-17 15:02:00,46.9,37.7,30.10,SE,135,12.7,12.7,70,0.00,CLR,,0.00,WeatherDisplay:10.37,2013-02-17 15:02:00,
2013-02-17 15:07:00,46.8,37.5,30.11,South,180,12.7,12.7,70,0.00,CLR,,0.00,WeatherDisplay:10.37,2013-02-17 15:07:00,
2013-02-17 15:12:00,46.9,37.3,30.10,SSE,158,16.1,16.1,69,0.00,CLR,,0.00,WeatherDisplay:10.37,2013-02-17 15:12:00,
2013-02-17 15:17:00,46.8,37.1,30.10,SSE,158,15.0,15.0,69,0.00,CLR,,0.00,WeatherDisplay:10.37,2013-02-17 15:17:00,
2013-02-17 15:22:00,46.8,37.5,30.11,SSE,158,6.9,6.9,70,0.00,CLR,,0.00,WeatherDisplay:10.37,2013-02-17 15:22:00,
2013-02-17 15:27:00,46.6,37.3,30.10,SE,135,16.1,16.1,70,0.00,CLR,,0.00,WeatherDisplay:10.37,2013-02-17 15:27:00,
2013-02-17 15:32:00,46.6,37.3,30.10,South,180,13.8,13.8,70,0.00,CLR,,0.00,WeatherDisplay:10.37,2013-02-17 15:32:00,
2013-02-17 15:37:00,46.6,37.3,30.10,SE,135,8.1,8.1,70,0.00,CLR,,0.00,WeatherDisplay:10.37,2013-02-17 15:37:00,
2013-02-17 15:42:00,46.2,37.0,30.10,SE,135,16.1,16.1,70,0.00,CLR,,0.00,WeatherDisplay:10.37,2013-02-17 15:42:00,
2013-02-17 15:47:00,46.2,36.6,30.10,SE,135,10.4,10.4,69,0.00,CLR,,0.00,WeatherDisplay:10.37,2013-02-17 15:47:00,
2013-02-17 15:52:00,46.2,36.6,30.10,SSE,158,3.5,4.6,69,0.00,CLR,,0.00,WeatherDisplay:10.37,2013-02-17 15:52:00,
2013-02-17 15:57:00,46.2,37.0,30.10,SE,135,9.6,9.6,70,0.00,CLR,,0.00,WeatherDisplay:10.37,2013-02-17 15:57:00,
2013-02-17 16:02:00,46.2,37.0,30.10,SSE,158,9.2,9.2,70,0.00,CLR,,0.00,WeatherDisplay:10.37,2013-02-17 16:02:00,
2013-02-17 16:08:00,46.0,36.8,30.10,SE,135,10.4,10.4,70,0.00,CLR,,0.00,WeatherDisplay:10.37,2013-02-17 16:08:00,
2013-02-17 16:13:00,46.0,36.8,30.10,ESE,112,9.2,9.2,70,0.00,CLR,,0.00,WeatherDisplay:10.37,2013-02-17 16:13:00,
2013-02-17 16:18:00,46.0,36.8,30.09,SE,135,13.8,13.8,70,0.00,CLR,,0.00,WeatherDisplay:10.37,2013-02-17 16:18:00,
2013-02-17 16:23:00,45.7,36.5,30.10,SE,135,10.4,10.4,70,0.00,CLR,,0.00,WeatherDisplay:10.37,2013-02-17 16:23:00,
2013-02-17 16:28:00,45.7,36.5,30.10,SSE,158,8.1,8.1,70,0.00,CLR,,0.00,WeatherDisplay:10.37,2013-02-17 16:28:00,
2013-02-17 16:33:00,45.7,36.5,30.09,SE,135,9.2,9.2,70,0.00,CLR,,0.00,WeatherDisplay:10.37,2013-02-17 16:33:00,
2013-02-17 16:38:00,45.7,36.5,30.09,SSE,158,10.5,10.5,70,0.00,CLR,,0.00,WeatherDisplay:10.37,2013-02-17 16:38:00,
2013-02-17 16:43:00,45.7,36.5,30.09,ENE,68,5.8,5.8,70,0.00,CLR,,0.00,WeatherDisplay:10.37,2013-02-17 16:43:00,
2013-02-17 16:48:00,45.5,36.3,30.10,ESE,112,6.9,6.9,70,0.00,CLR,,0.00,WeatherDisplay:10.37,2013-02-17 16:48:00,
2013-02-17 16:53:00,45.3,36.1,30.10,SE,135,7.4,7.4,70,0.00,CLR,,0.00,WeatherDisplay:10.37,2013-02-17 16:53:00,
2013-02-17 16:58:00,45.3,36.1,30.09,SE,135,5.8,5.8,70,0.00,CLR,,0.00,WeatherDisplay:10.37,2013-02-17 16:58:00,
2013-02-17 17:03:00,45.1,35.9,30.10,South,180,8.7,8.7,70,0.00,CLR,,0.00,WeatherDisplay:10.37,2013-02-17 17:03:00,
2013-02-17 17:08:00,45.1,35.9,30.10,SE,135,5.8,5.8,70,0.00,CLR,,0.00,WeatherDisplay:10.37,2013-02-17 17:08:00,
2013-02-17 17:13:00,45.0,35.8,30.10,SSE,158,8.1,8.1,70,0.00,CLR,,0.00,WeatherDisplay:10.37,2013-02-17 17:13:00,
2013-02-17 17:18:00,44.8,35.2,30.10,ESE,112,6.9,6.9,69,0.00,CLR,,0.00,WeatherDisplay:10.37,2013-02-17 17:18:00,
2013-02-17 17:23:00,44.8,35.2,30.10,SE,135,10.4,10.4,69,0.00,CLR,,0.00,WeatherDisplay:10.37,2013-02-17 17:23:00,
2013-02-17 17:28:00,44.6,35.1,30.10,SSE,158,8.1,8.1,69,0.00,CLR,,0.00,WeatherDisplay:10.37,2013-02-17 17:28:00,
2013-02-17 17:33:00,44.4,34.9,30.10,East,90,11.5,11.5,69,0.00,CLR,,0.00,WeatherDisplay:10.37,2013-02-17 17:33:00,
2013-02-17 17:38:00,44.4,34.5,30.10,SE,135,6.9,6.9,68,0.00,CLR,,0.00,WeatherDisplay:10.37,2013-02-17 17:38:00,
2013-02-17 17:43:00,44.4,34.5,30.10,SE,135,9.2,9.2,68,0.00,CLR,,0.00,WeatherDisplay:10.37,2013-02-17 17:43:00,
2013-02-17 17:48:00,44.2,34.3,30.11,SSE,158,4.6,4.6,68,0.00,CLR,,0.00,WeatherDisplay:10.37,2013-02-17 17:48:00,
2013-02-17 17:53:00,44.1,34.5,30.11,East,90,3.6,3.6,69,0.00,CLR,,0.00,WeatherDisplay:10.37,2013-02-17 17:53:00,
2013-02-17 17:58:00,43.7,34.2,30.11,East,90,6.3,6.3,69,0.00,CLR,,0.00,WeatherDisplay:10.37,2013-02-17 17:58:00,
2013-02-17 18:03:00,43.5,34.4,30.11,ESE,112,4.6,4.6,70,0.00,CLR,,0.00,WeatherDisplay:10.37,2013-02-17 18:03:00,
2013-02-17 18:08:00,43.3,34.2,30.11,ESE,112,3.5,3.5,70,0.00,CLR,,0.00,WeatherDisplay:10.37,2013-02-17 18:08:00,
2013-02-17 18:13:00,43.2,34.0,30.11,ESE,112,4.6,4.6,70,0.00,CLR,,0.00,WeatherDisplay:10.37,2013-02-17 18:13:00,
2013-02-17 18:18:00,43.2,34.0,30.11,ESE,112,3.5,3.5,70,0.00,CLR,,0.00,WeatherDisplay:10.37,2013-02-17 18:18:00,
2013-02-17 18:23:00,43.0,33.9,30.11,ESE,112,5.8,5.8,70,0.00,CLR,,0.00,WeatherDisplay:10.37,2013-02-17 18:23:00,
2013-02-17 18:28:00,42.8,33.7,30.11,SE,135,4.6,4.6,70,0.00,CLR,,0.00,WeatherDisplay:10.37,2013-02-17 18:28:00,
2013-02-17 18:33:00,42.6,33.9,30.11,ESE,112,4.6,4.6,71,0.00,CLR,,0.00,WeatherDisplay:10.37,2013-02-17 18:33:00,
2013-02-17 18:38:00,42.6,33.9,30.11,ESE,112,4.6,4.6,71,0.00,CLR,,0.00,WeatherDisplay:10.37,2013-02-17 18:38:00,
2013-02-17 18:43:00,42.6,33.9,30.11,ENE,68,5.8,5.8,71,0.00,CLR,,0.00,WeatherDisplay:10.37,2013-02-17 18:43:00,
2013-02-17 18:48:00,42.4,33.7,30.11,ESE,112,4.6,4.6,71,0.00,CLR,,0.00,WeatherDisplay:10.37,2013-02-17 18:48:00,
2013-02-17 18:53:00,42.4,34.0,30.11,East,90,5.8,5.8,72,0.00,CLR,,0.00,WeatherDisplay:10.37,2013-02-17 18:53:00,
2013-02-17 18:58:00,42.3,33.9,30.11,East,90,5.6,5.6,72,0.00,CLR,,0.00,WeatherDisplay:10.37,2013-02-17 18:58:00,
2013-02-17 19:03:00,42.1,33.7,30.11,SE,135,4.6,4.6,72,0.00,CLR,,0.00,WeatherDisplay:10.37,2013-02-17 19:03:00,
2013-02-17 19:08:00,42.1,34.0,30.11,SE,135,4.6,4.6,73,0.00,CLR,,0.00,WeatherDisplay:10.37,2013-02-17 19:08:00,
2013-02-17 19:13:00,41.9,33.9,30.11,ESE,112,8.1,8.1,73,0.00,CLR,,0.00,WeatherDisplay:10.37,2013-02-17 19:13:00,
2013-02-17 19:18:00,41.9,33.9,30.11,ESE,112,6.9,6.9,73,0.00,CLR,,0.00,WeatherDisplay:10.37,2013-02-17 19:18:00,
2013-02-17 19:23:00,41.7,33.7,30.11,ENE,68,5.8,5.8,73,0.00,CLR,,0.00,WeatherDisplay:10.37,2013-02-17 19:23:00,
2013-02-17 19:28:00,41.7,33.7,30.11,East,90,6.9,6.9,73,0.00,CLR,,0.00,WeatherDisplay:10.37,2013-02-17 19:28:00,
2013-02-17 19:33:00,41.7,33.7,30.11,ESE,112,6.9,6.9,73,0.00,CLR,,0.00,WeatherDisplay:10.37,2013-02-17 19:33:00,
2013-02-17 19:38:00,41.5,33.9,30.11,ESE,112,9.2,9.2,74,0.00,CLR,,0.00,WeatherDisplay:10.37,2013-02-17 19:38:00,
2013-02-17 19:43:00,41.5,33.9,30.11,ESE,112,7.8,7.8,74,0.00,CLR,,0.00,WeatherDisplay:10.37,2013-02-17 19:43:00,
2013-02-17 19:48:00,41.5,33.9,30.11,ESE,112,4.6,4.6,74,0.00,CLR,,0.00,WeatherDisplay:10.37,2013-02-17 19:48:00,
2013-02-17 19:53:00,41.4,33.7,30.11,East,90,3.5,3.5,74,0.00,CLR,,0.00,WeatherDisplay:10.37,2013-02-17 19:53:00,
2013-02-17 19:58:00,41.2,33.5,30.11,ESE,112,4.6,4.6,74,0.00,CLR,,0.00,WeatherDisplay:10.37,2013-02-17 19:58:00,
2013-02-17 20:03:00,41.2,33.5,30.11,ESE,112,3.6,3.6,74,0.00,CLR,,0.00,WeatherDisplay:10.37,2013-02-17 20:03:00,
2013-02-17 20:08:00,40.8,33.5,30.11,ESE,112,3.5,3.5,75,0.00,CLR,,0.00,WeatherDisplay:10.37,2013-02-17 20:08:00,
2013-02-17 20:13:00,40.8,33.5,30.11,ENE,68,4.6,4.6,75,0.00,CLR,,0.00,WeatherDisplay:10.37,2013-02-17 20:13:00,
2013-02-17 20:18:00,40.6,33.3,30.11,East,90,5.8,5.8,75,0.00,CLR,,0.00,WeatherDisplay:10.37,2013-02-17 20:18:00,
2013-02-17 20:24:00,40.6,33.3,30.11,ENE,68,4.6,4.6,75,0.00,CLR,,0.00,WeatherDisplay:10.37,2013-02-17 20:24:00,
2013-02-17 20:29:00,40.5,33.2,30.11,East,90,4.6,4.6,75,0.00,CLR,,0.00,WeatherDisplay:10.37,2013-02-17 20:29:00,
2013-02-17 20:34:00,40.5,33.5,30.11,ESE,112,4.6,4.9,76,0.00,CLR,,0.00,WeatherDisplay:10.37,2013-02-17 20:34:00,
2013-02-17 20:39:00,40.3,33.3,30.11,East,90,4.6,4.6,76,0.00,CLR,,0.00,WeatherDisplay:10.37,2013-02-17 20:39:00,
2013-02-17 20:44:00,40.3,33.3,30.11,ESE,112,5.8,5.8,76,0.00,CLR,,0.00,WeatherDisplay:10.37,2013-02-17 20:44:00,
2013-02-17 20:49:00,40.1,33.1,30.11,ESE,112,4.6,4.6,76,0.00,CLR,,0.00,WeatherDisplay:10.37,2013-02-17 20:49:00,
2013-02-17 20:54:00,40.1,33.1,30.11,East,90,5.8,5.8,76,0.00,CLR,,0.00,WeatherDisplay:10.37,2013-02-17 20:54:00,
2013-02-17 20:59:00,39.9,33.0,30.11,ESE,112,5.8,5.8,76,0.00,CLR,,0.00,WeatherDisplay:10.37,2013-02-17 20:59:00,
2013-02-17 21:04:00,39.7,32.8,30.11,East,90,4.6,4.6,76,0.00,CLR,,0.00,WeatherDisplay:10.37,2013-02-17 21:04:00,
2013-02-17 21:09:00,39.6,32.9,30.11,ESE,112,4.6,4.6,77,0.00,CLR,,0.00,WeatherDisplay:10.37,2013-02-17 21:09:00,
2013-02-17 21:14:00,39.6,32.9,30.11,East,90,4.6,4.6,77,0.00,CLR,,0.00,WeatherDisplay:10.37,2013-02-17 21:14:00,
2013-02-17 21:19:00,39.4,32.8,30.11,ESE,112,5.8,5.8,77,0.00,CLR,,0.00,WeatherDisplay:10.37,2013-02-17 21:19:00,
2013-02-17 21:24:00,39.2,32.6,30.12,ESE,112,5.8,5.8,77,0.00,CLR,,0.00,WeatherDisplay:10.37,2013-02-17 21:24:00,
2013-02-17 21:29:00,39.0,32.7,30.11,ESE,112,5.8,5.8,78,0.00,CLR,,0.00,WeatherDisplay:10.37,2013-02-17 21:29:00,
2013-02-17 21:34:00,39.0,32.7,30.11,East,90,5.8,5.8,78,0.00,CLR,,0.00,WeatherDisplay:10.37,2013-02-17 21:34:00,
2013-02-17 21:39:00,39.0,32.7,30.11,ESE,112,8.1,8.1,78,0.00,CLR,,0.00,WeatherDisplay:10.37,2013-02-17 21:39:00,
2013-02-17 21:44:00,39.0,32.7,30.11,ESE,112,5.8,5.8,78,0.00,CLR,,0.00,WeatherDisplay:10.37,2013-02-17 21:44:00,
2013-02-17 21:49:00,39.0,32.7,30.12,East,90,4.6,4.6,78,0.00,CLR,,0.00,WeatherDisplay:10.37,2013-02-17 21:49:00,
2013-02-17 21:54:00,38.8,32.6,30.11,East,90,5.8,5.8,78,0.00,CLR,,0.00,WeatherDisplay:10.37,2013-02-17 21:54:00,
2013-02-17 21:59:00,38.8,32.6,30.11,SE,135,9.2,9.2,78,0.00,CLR,,0.00,WeatherDisplay:10.37,2013-02-17 21:59:00,
2013-02-17 22:04:00,39.0,33.1,30.11,ESE,112,9.2,9.2,79,0.00,CLR,,0.00,WeatherDisplay:10.37,2013-02-17 22:04:00,
2013-02-17 22:09:00,39.0,33.1,30.11,SE,135,6.5,6.5,79,0.00,CLR,,0.00,WeatherDisplay:10.37,2013-02-17 22:09:00,
2013-02-17 22:14:00,39.0,33.1,30.11,ESE,112,6.9,6.9,79,0.00,CLR,,0.00,WeatherDisplay:10.37,2013-02-17 22:14:00,
2013-02-17 22:19:00,39.2,33.2,30.11,East,90,5.8,5.8,79,0.00,CLR,,0.00,WeatherDisplay:10.37,2013-02-17 22:19:00,
2013-02-17 22:24:00,39.2,33.2,30.11,East,90,6.9,6.9,79,0.00,CLR,,0.00,WeatherDisplay:10.37,2013-02-17 22:24:00,
2013-02-17 22:29:00,39.2,33.2,30.11,ESE,112,5.8,5.8,79,0.00,CLR,,0.00,WeatherDisplay:10.37,2013-02-17 22:29:00,
2013-02-17 22:34:00,39.0,33.1,30.11,SE,135,8.1,8.1,79,0.00,CLR,,0.00,WeatherDisplay:10.37,2013-02-17 22:34:00,
2013-02-17 22:39:00,39.0,33.1,30.11,ESE,112,4.7,4.7,79,0.00,CLR,,0.00,WeatherDisplay:10.37,2013-02-17 22:39:00,
2013-02-17 22:44:00,39.2,33.2,30.12,ESE,112,5.8,5.8,79,0.00,CLR,,0.00,WeatherDisplay:10.37,2013-02-17 22:44:00,
2013-02-17 22:49:00,39.0,33.1,30.11,SE,135,8.3,8.3,79,0.00,CLR,,0.00,WeatherDisplay:10.37,2013-02-17 22:49:00,
2013-02-17 22:54:00,39.0,33.1,30.12,SE,135,8.1,8.1,79,0.00,CLR,,0.00,WeatherDisplay:10.37,2013-02-17 22:54:00,
2013-02-17 22:59:00,39.2,33.2,30.11,ESE,112,3.5,3.5,79,0.00,CLR,,0.00,WeatherDisplay:10.37,2013-02-17 22:59:00,
2013-02-17 23:04:00,39.0,33.1,30.11,ESE,112,4.6,4.6,79,0.00,CLR,,0.00,WeatherDisplay:10.37,2013-02-17 23:04:00,
2013-02-17 23:15:00,39.0,33.1,30.12,ESE,112,4.6,4.6,79,0.00,CLR,,0.00,WeatherDisplay:10.37,2013-02-17 23:15:00,
2013-02-17 23:20:00,39.0,33.1,30.11,ENE,68,5.8,5.8,79,0.00,CLR,,0.00,WeatherDisplay:10.37,2013-02-17 23:20:00,
2013-02-17 23:25:00,39.0,33.1,30.11,SE,135,5.8,5.8,79,0.00,CLR,,0.00,WeatherDisplay:10.37,2013-02-17 23:25:00,
2013-02-17 23:30:00,38.8,32.9,30.12,East,90,3.5,3.5,79,0.00,CLR,,0.00,WeatherDisplay:10.37,2013-02-17 23:30:00,
2013-02-17 23:35:00,38.8,32.9,30.12,East,90,3.1,3.1,79,0.00,CLR,,0.00,WeatherDisplay:10.37,2013-02-17 23:35:00,
2013-02-17 23:40:00,38.8,32.9,30.11,ENE,68,3.5,3.5,79,0.00,CLR,,0.00,WeatherDisplay:10.37,2013-02-17 23:40:00,
2013-02-17 23:45:00,38.8,32.9,30.11,SE,135,4.0,4.0,79,0.00,CLR,,0.00,WeatherDisplay:10.37,2013-02-17 23:45:00,
2013-02-17 23:50:00,38.7,32.7,30.11,SE,135,5.8,5.8,79,0.00,CLR,,0.00,WeatherDisplay:10.37,2013-02-17 23:50:00,
2013-02-17 23:55:00,38.7,32.7,30.11,SE,135,4.6,4.6,79,0.00,CLR,,0.00,WeatherDisplay:10.37,2013-02-17 23:55:00,